{"data":{"norad_id":48053,"intl_designator":"2021-025M","name":"ONEWEB-0161","alt_names":[],"object_type":"PAYLOAD","status":"ACTIVE","operator":null,"country":"UK","launch_date":"2021-03-25","launch_site_code":"VOSTO","launch_vehicle":null,"mission":null,"orbit_class":"UNKNOWN","rcs_meters":null,"size_class":null,"mass_kg":null,"dimensions":null,"purposes":["comms"],"wikipedia_slug":null,"has_3d_model":false,"image_url":null,"decayed_at":null,"tle_current":{"epoch":"2026-09-19T22:24:47.416896Z","epoch_age_seconds":70937,"freshness":"FRESH","line1":"1 48053U 21025M   26262.93388214  .00000120  00000+0  29273-3 0  9994","line2":"2 48053  87.8915 301.3742 0001721  97.4328 262.6997 13.13469792265946","mean_motion":13.13469792,"eccentricity":0.0001721,"inclination_deg":87.8915,"raan_deg":301.3742,"arg_perigee_deg":97.4328,"mean_anomaly_deg":262.6997,"bstar":0.00029273,"rev_number":26594,"period_min":109.63327887483,"perigee_km":1208.4603228354,"apogee_km":1211.0720791171,"semimajor_km":7587.9032009762,"source":"CELESTRAK","updated_at":"2026-09-20T09:00:44.586026Z"}}}